View from above orbital plane
|
View from above satellite
|
Ground track
|
The orbit data is extracted from the following two-line orbital elements,
1 20580U 90037B 21106.17013348 .00000499 00000-0 19213-4 0 9993
2 20580 28.4691 117.1798 0002926 110.7515 316.0698 15.09611393501838
Epoch (UTC): | 16 April 2021 04:04:59 |
Eccentricity: | 0.0002926 |
inclination: | 28.4691° |
perigee height: | 535 km |
apogee height: | 539 km |
right ascension of ascending node: | 117.1798° |
argument of perigee: | 110.7515° |
revolutions per day: | 15.09611393 |
mean anomaly at epoch: | 316.0698° |
orbit number at epoch: | 50183 |
The dashed part of the orbit path shows where the satellite is in the earth's shadow,
|
|